Theta_e
323 327 327 325 325 326 327 333 337 335 332 332 333 334 335 333 336 340 340 341 342 342 340 340 341 337 335 332 330 331 331 329 329 331 336 337 339 338 334 331 327 325 324 323
326 326 325 324 324 328 333 333 335 331 330 332 333 333 333 335 340 340 339 341 342 341 340 341 338 334 332 333 334 332 332 333 334 330 331 333 335 335 328 325 324 325 324 322
326 325 322 324 329 331 329 335 334 332 329 330 331 333 334 333 339 341 340 339 341 341 342 341 337 337 336 333 331 331 332 333 332 331 333 333 334 331 328 327 325 323 321 320
325 324 324 330 330 330 333 328 329 331 332 333 329 334 334 332 338 342 344 343 342 341 341 339 337 334 332 330 331 331 330 329 327 327 328 328 326 326 324 323 321 320 319 318
327 328 329 331 329 327 332 329 331 332 334 334 333 334 334 332 337 342 344 343 342 341 339 336 331 330 329 329 328 326 325 324 324 323 323 322 322 321 321 318 318 317 316 315
328 327 329 329 328 328 328 330 331 331 334 336 333 334 335 335 335 338 339 339 337 334 332 329 328 327 326 326 325 325 324 323 321 320 318 317 317 316 315 314 313 311 311 311
331 331 330 331 331 330 329 332 333 335 336 337 331 334 336 333 333 336 337 336 334 332 330 328 327 326 325 325 324 323 323 322 319 317 315 313 313 313 312 312 311 310 310 310
331 333 333 332 332 333 332 332 331 333 338 336 332 336 335 331 333 333 332 332 332 331 328 327 326 325 325 324 324 323 321 319 317 315 314 313 312 311 310 310 310 310 310 310
336 334 331 332 331 331 334 336 330 336 330 334 334 334 332 332 334 331 332 331 330 329 328 326 326 326 324 324 322 320 319 318 315 314 313 312 311 311 310 310 310 310 311 311
334 336 333 333 330 331 333 330 334 333 337 335 334 334 335 336 336 331 332 331 329 328 326 325 325 325 324 323 320 319 317 315 314 313 312 311 310 310 310 311 311 311 311 311
333 337 335 332 335 336 333 335 331 332 331 335 335 334 331 336 334 332 331 330 330 328 325 324 324 324 323 321 320 318 317 315 314 312 311 311 310 310 311 311 311 311 312 311
333 339 338 335 331 333 332 333 331 334 337 333 335 336 331 332 332 332 331 329 329 327 326 323 323 324 324 323 321 319 316 314 313 311 311 311 311 311 311 311 311 311 311 311
336 338 339 336 332 333 335 334 331 333 335 338 335 335 332 331 332 331 331 327 326 325 324 323 323 323 323 323 320 318 315 314 312 311 310 311 311 311 312 312 311 311 311 311
336 335 337 329 329 332 336 334 332 335 337 337 337 335 336 334 333 332 331 326 324 324 323 324 324 324 323 322 319 317 315 313 311 310 311 311 311 311 312 312 312 312 311 311
337 338 334 332 332 333 334 334 334 335 334 336 334 336 335 334 333 332 330 326 324 324 323 324 325 324 322 320 318 317 314 313 311 310 311 311 311 312 312 312 312 312 312 311
336 341 336 336 333 333 334 333 333 334 333 334 334 335 333 332 331 331 329 327 326 324 321 323 324 322 320 319 318 316 314 312 311 310 311 311 311 311 312 312 312 312 312 312
338 338 337 338 333 332 333 336 334 334 333 335 335 334 332 333 332 330 329 328 327 323 321 324 324 322 319 319 317 316 314 312 311 311 311 311 311 311 311 312 312 312 312 312
338 338 335 338 334 335 332 334 335 335 335 333 333 332 333 332 331 329 328 328 326 322 321 324 324 321 319 318 317 316 313 311 311 311 311 311 311 310 312 312 312 312 312 312
336 338 338 337 336 336 336 335 335 336 336 334 334 332 331 331 330 330 327 325 324 320 321 324 323 320 319 318 317 315 313 312 312 312 311 310 311 310 311 312 311 312 312 312
332 336 339 337 337 338 336 334 333 333 335 334 334 333 332 331 333 332 328 325 321 321 323 324 321 319 319 318 316 316 313 313 313 312 312 310 310 310 309 310 311 310 312 312
338 338 338 334 337 335 331 333 331 334 329 334 334 333 333 333 332 329 326 321 321 321 324 324 321 320 318 317 316 316 314 314 313 310 310 310 309 308 307 308 309 310 312 312
338 341 341 336 339 339 331 333 335 335 332 336 335 334 333 330 328 327 324 322 321 322 324 323 322 320 319 317 317 316 314 314 311 310 310 311 311 308 309 309 308 309 310 312
339 337 340 339 338 332 334 334 336 334 335 334 335 333 332 330 328 325 324 322 321 321 324 323 323 321 318 318 317 315 314 313 311 311 311 311 311 310 311 311 311 309 310 311
331 330 335 334 334 331 330 331 330 331 333 333 332 332 331 331 327 325 323 320 320 321 322 323 322 321 319 318 316 314 313 312 311 311 311 311 311 311 312 312 311 311 309 310
330 329 332 333 329 328 330 331 333 332 331 330 329 330 331 330 328 325 323 319 318 321 321 322 322 321 320 318 316 314 313 311 312 311 311 312 311 312 312 312 311 312 310 307
326 332 333 333 333 333 332 332 332 333 332 331 330 328 327 328 327 322 321 318 320 321 321 321 322 322 320 318 317 315 313 313 313 312 312 311 312 312 312 313 313 312 311 311
Wind_Speed
3 3 7 5 1 8 10 12 14 9 3 13 14 17 16 12 13 5 5 7 2 3 7 6 9 9 10 17 21 20 16 17 17 13 14 15 14 13 10 12 12 13 15 16
3 4 1 4 8 12 14 15 8 10 15 15 16 16 12 16 12 11 7 6 7 7 7 12 13 14 17 18 19 19 17 15 14 10 11 9 10 7 10 12 13 16 18 17
3 4 3 4 5 9 6 7 9 16 9 8 9 14 13 11 14 13 13 9 9 9 11 12 16 15 15 17 18 18 18 16 14 16 14 13 7 8 10 13 14 14 14 13
3 5 6 9 6 4 2 3 8 15 10 4 6 5 8 11 13 14 12 12 10 10 11 13 17 18 18 18 17 19 20 21 19 20 16 16 14 13 11 12 12 13 13 13
3 6 6 8 3 2 2 4 13 8 9 5 7 4 4 5 9 12 13 12 11 10 9 11 13 15 17 18 19 19 21 22 20 20 19 17 17 13 11 13 14 14 13 13
3 1 4 3 4 2 8 8 8 4 1 2 4 2 3 2 3 5 9 11 11 10 11 13 14 14 15 15 18 20 22 22 22 22 23 21 18 17 17 17 17 17 16 15
4 4 2 4 2 6 2 2 3 4 1 1 3 2 3 2 3 4 6 8 7 7 8 9 13 16 18 19 17 17 18 17 19 20 22 21 20 18 17 17 16 17 17 15
3 4 6 6 4 2 4 1 1 3 2 2 0 2 4 2 2 5 5 6 6 7 8 11 14 12 12 13 13 13 13 14 15 16 16 17 17 14 14 14 13 12 13 12
4 3 1 5 5 2 2 2 2 5 1 3 1 1 3 3 4 5 6 8 8 7 7 8 8 8 10 10 9 10 10 10 13 13 15 16 15 14 14 13 12 12 12 13
5 4 1 2 2 9 3 6 1 1 2 2 1 3 3 8 9 4 4 4 3 2 5 7 7 7 7 6 6 7 8 11 12 13 15 15 14 13 12 12 13 13 13 13
4 2 2 2 5 3 1 2 4 3 2 1 1 0 1 10 8 4 2 0 2 0 5 6 7 6 6 5 6 7 9 12 13 15 16 13 13 14 14 13 14 14 14 13
2 3 3 3 1 1 1 2 1 2 1 2 2 1 1 6 6 4 3 2 3 0 3 7 8 7 6 6 6 7 10 11 12 14 15 14 13 14 15 16 15 15 15 14
7 2 3 3 3 2 0 2 3 4 1 2 3 2 3 5 5 5 5 5 3 0 4 7 8 9 8 7 7 8 10 11 12 14 15 14 15 16 17 16 16 16 16 15
6 3 2 1 1 1 3 2 2 1 2 2 3 2 8 9 8 7 7 6 2 1 4 5 7 9 8 7 7 7 10 10 12 15 14 15 16 16 15 15 15 17 16 15
3 4 3 3 1 1 3 0 3 3 1 3 3 3 1 10 10 7 7 5 2 2 5 5 6 8 8 8 7 8 9 10 13 15 13 15 16 15 14 14 14 16 19 16
1 4 3 3 1 1 3 3 3 1 2 3 1 3 3 7 10 7 7 5 1 3 5 5 6 6 8 7 7 8 9 10 12 13 12 15 15 14 15 14 14 14 17 18
3 5 2 3 2 1 1 2 2 1 2 1 1 3 7 8 9 8 6 4 1 3 4 3 4 5 6 6 7 8 9 8 11 11 12 14 16 15 15 14 14 14 15 16
5 4 2 3 1 2 3 2 4 3 1 4 0 1 6 7 6 5 2 4 1 1 2 2 3 3 4 5 6 7 8 8 9 11 12 13 14 14 14 14 14 13 13 15
4 4 3 2 1 3 2 3 3 1 1 1 3 6 5 8 7 4 4 3 2 2 3 3 4 3 3 5 6 7 8 7 8 10 12 12 12 13 12 12 13 11 12 14
7 7 2 3 2 2 1 3 3 2 2 2 4 8 9 9 4 4 6 5 4 4 4 5 5 3 2 3 5 7 7 7 9 11 10 10 11 10 12 9 10 10 9 10
2 3 2 3 2 3 3 6 5 2 2 5 6 8 9 5 4 3 7 5 5 4 5 6 5 3 2 1 3 6 5 7 8 8 7 8 8 9 11 10 9 9 7 8
4 4 3 2 2 4 8 6 4 5 4 7 7 8 9 6 5 8 7 5 5 4 5 5 5 3 1 1 2 6 5 5 6 6 6 8 6 8 9 10 9 8 7 7
3 3 2 6 2 2 11 1 3 6 6 5 7 7 10 9 7 10 7 5 3 3 3 4 4 4 3 2 1 5 4 5 5 5 6 7 6 6 8 8 7 7 6 6
2 2 2 3 4 4 7 7 3 7 4 7 7 11 11 10 9 9 6 6 4 4 4 4 5 6 4 3 1 2 2 3 4 5 5 6 6 8 8 7 7 6 6 4
1 6 3 4 4 3 7 11 6 9 6 9 10 10 13 11 11 10 7 7 6 7 5 5 6 6 5 4 3 2 2 2 2 3 4 5 6 7 7 7 6 5 4 3
5 4 4 2 3 3 3 6 12 12 11 11 12 9 9 12 11 12 8 8 8 9 7 6 6 6 6 6 5 4 3 3 3 3 4 5 5 7 7 7 6 7 6 4
Wind_Direction
36 77 36 14 104 113 105 120 123 113 73 63 68 56 33 28 59 69 23 81 117 42 36 25 32 32 30 33 19 19 7 5 358 360 2 355 341 344 360 353 357 4 6 3
79 57 35 69 145 116 111 124 118 90 97 93 86 67 56 35 27 31 39 55 59 49 41 55 55 39 21 11 7 12 9 359 5 357 343 339 334 356 21 16 9 358 356 359
53 0 205 181 141 102 85 140 166 142 124 107 89 60 45 45 45 50 46 42 39 38 30 36 37 26 20 18 14 13 11 14 11 5 2 14 30 18 13 7 6 8 8 8
54 8 121 107 83 28 68 315 177 148 168 124 345 113 46 18 48 47 50 44 41 32 24 25 17 19 19 22 35 45 42 41 38 39 41 43 41 33 12 7 6 4 5 9
50 53 75 76 34 3 25 109 141 120 95 157 38 116 102 25 40 32 32 30 36 37 30 27 25 28 36 40 41 43 44 45 43 43 43 37 34 25 11 3 359 356 357 358
78 129 47 35 50 32 140 96 75 68 94 106 11 292 132 20 327 32 44 40 34 37 39 46 55 51 41 40 40 39 33 34 33 31 29 27 22 11 3 358 358 356 355 356
71 33 46 27 121 92 49 163 170 203 144 52 330 231 83 340 15 12 29 46 40 41 55 55 45 36 33 32 33 35 30 32 27 25 20 15 10 6 4 3 359 358 356 357
120 146 9 355 36 26 56 326 13 295 200 166 85 202 107 348 82 81 68 61 64 59 54 45 34 30 30 31 38 35 35 32 25 20 18 11 7 6 6 3 2 360 357 351
141 121 48 49 54 319 111 61 70 107 41 225 44 161 202 191 155 105 72 60 55 49 47 43 28 27 27 32 40 36 37 31 22 16 11 7 6 4 1 2 2 358 354 349
168 125 12 49 169 62 33 127 218 104 170 246 177 268 231 187 189 123 106 67 76 54 51 42 27 28 28 46 45 37 35 26 18 12 6 4 6 5 0 358 359 358 358 359
136 94 159 244 30 10 91 119 68 94 342 283 280 231 201 193 167 151 138 22 166 105 37 33 20 18 27 35 33 34 26 18 12 8 3 3 1 2 1 359 357 358 358 357
62 106 108 74 40 8 21 81 74 315 160 54 335 62 166 193 152 145 125 119 161 337 28 25 17 11 11 15 22 28 21 14 12 6 3 4 1 2 4 8 7 7 5 1
173 44 120 151 158 138 11 72 98 106 168 165 306 26 139 153 163 181 167 160 166 106 31 24 15 16 10 15 24 24 17 12 10 3 7 10 7 6 8 9 8 5 1 3
99 93 127 215 80 92 148 139 141 78 272 137 241 291 191 190 179 163 165 172 160 22 28 25 17 16 20 27 23 20 17 14 9 6 8 6 4 3 6 9 12 12 12 11
75 101 106 55 264 129 94 174 204 236 315 260 3 235 345 186 170 156 161 173 186 14 25 28 25 22 31 25 13 18 17 15 10 9 11 11 6 5 6 9 12 17 19 13
29 132 138 81 17 201 126 70 94 219 166 261 290 247 29 129 139 154 171 175 234 3 21 33 36 37 29 14 10 16 17 18 13 11 12 9 5 6 9 11 11 13 14 16
75 133 128 129 2 84 224 19 351 159 252 273 302 18 152 153 166 159 163 188 262 5 18 37 47 48 25 16 12 14 13 16 15 10 9 9 8 7 10 8 11 12 14 15
118 97 65 116 154 211 55 330 244 258 235 188 234 139 170 172 162 157 150 158 217 18 36 101 86 78 31 21 13 8 9 13 9 10 8 4 5 5 11 15 16 18 18 18
59 119 100 157 168 318 228 186 188 192 51 170 129 130 129 136 145 159 161 152 106 86 92 121 125 100 51 27 13 4 2 359 358 0 1 3 1 0 6 9 11 16 21 24
64 68 111 157 212 241 111 175 190 171 53 144 153 160 154 162 184 82 169 168 143 114 136 144 144 126 71 29 9 3 3 359 1 357 354 359 3 6 8 1 2 7 19 24
72 40 135 150 216 268 184 165 168 199 85 163 178 174 169 189 70 111 149 145 125 131 150 145 151 144 85 25 4 2 357 5 359 0 5 5 12 17 16 14 6 11 24 33
179 151 161 139 193 266 159 140 210 138 163 176 172 178 178 139 144 150 158 148 148 142 146 163 168 167 200 239 4 2 4 358 4 4 6 6 9 14 8 15 12 9 27 41
204 208 201 208 209 60 191 289 188 178 155 167 163 160 166 157 166 168 166 149 151 144 156 185 196 199 218 193 31 4 359 356 3 3 6 3 2 356 355 349 359 7 14 44
195 178 236 197 169 227 223 223 229 191 149 151 144 154 170 176 178 176 157 152 160 166 182 198 204 215 220 191 178 340 339 350 6 10 10 7 0 356 358 355 344 354 359 20
55 158 167 262 248 268 238 221 202 183 152 143 151 164 173 174 193 178 167 172 181 179 187 204 218 224 218 202 210 251 270 298 333 2 359 354 352 354 358 359 344 340 340 347
190 169 193 236 207 226 238 215 187 179 181 173 162 168 190 189 167 170 175 182 183 189 196 213 223 227 213 209 219 226 243 253 273 296 340 347 344 344 345 354 355 344 338 320